This demonstration page uses our WeatherBlox Daily Observations layout. Learn more.

Left ArrowRight Arrow

38.83388, -104.82136

Hourly Observations for March 11, 2018

Temp ( °F °C ) Dew Point ( °F °C ) Humidity (%) Winds ( mph kmh ) Pressure ( in mb ) Visibility ( mi km ) Precip ( " mm )
12:58 am 00:58 Clear 27 -3 16 -9.1 63 63 Calm 29.87 1012 10 16 0.00 0.00
1:58 am 01:58 Clear 26 -3.5 15 -9.2 65 65 Calm 29.87 1012 10 16 0.00 0.00
3:58 am 03:58 Mostly Cloudy 25 -3.8 15 -9.4 65 65 Calm 29.91 1013 10 16 0.00 0.00
4:58 am 04:58 Mostly Cloudy 26 -3.2 15 -9.4 63 63 NW 3 6 29.93 1014 10 16 0.00 0.00
5:58 am 05:58 Mostly Cloudy 26 -3.4 15 -9.5 63 63 Calm 29.97 1015 10 16 0.00 0.00
6:58 am 06:58 Mostly Cloudy 27 -2.8 14 -9.8 59 59 S 5 7 29.98 1015 10 16 0.00 0.00
7:58 am 07:58 Mostly Sunny 27 -2.7 16 -9.1 62 62 Calm 30.00 1016 10 16 0.00 0.00
8:58 am 08:58 Sunny 31 -0.7 16 -8.8 55 55 Calm 30.01 1016 10 16 0.00 0.00
9:58 am 09:58 Sunny 31 -0.6 16 -9.1 53 53 Calm 30.05 1018 10 16 0.00 0.00
10:58 am 10:58 Sunny 37 3 12 -11.1 35 35 ENE 6 9 30.01 1016 10 16 0.00 0.00
11:58 am 11:58 Sunny 41 4.9 10 -12.2 28 28 ESE 6 9 30.01 1016 10 16 0.00 0.00
12:58 pm 12:58 Sunny 41 4.8 6 -14.2 24 24 Calm 30.01 1016 10 16 0.00 0.00
1:58 pm 13:58 Sunny 45 7.3 8 -13.4 22 22 SE 5 7 29.97 1015 10 16 0.00 0.00
2:58 pm 14:58 Sunny 45 7.2 7 -13.7 21 21 SSE 7 11 29.96 1015 10 16 0.00 0.00
3:58 pm 15:58 Sunny 44 6.8 8 -13.4 22 22 ESE 5 7 29.96 1015 10 16 0.00 0.00
4:58 pm 16:58 Sunny 43 6 8 -13.4 24 24 ESE 8 13 29.98 1015 10 16 0.00 0.00
5:58 pm 17:58 Sunny 42 5.3 7 -13.7 24 24 SSE 9 15 30.00 1016 10 16 0.00 0.00
6:58 pm 18:58 Mostly Cloudy 39 4 9 -12.9 28 28 S 8 13 30.02 1017 10 16 0.00 0.00
7:58 pm 19:58 Mostly Cloudy 38 3.6 9 -12.9 29 29 WSW 9 15 30.03 1017 10 16 0.00 0.00
8:58 pm 20:58 Mostly Clear 37 2.8 9 -12.9 31 31 S 9 15 30.05 1018 10 16 0.00 0.00
9:58 pm 21:58 Clear 36 2.3 9 -12.8 32 32 S 12 19 30.05 1018 10 16 0.00 0.00
10:58 pm 22:58 Mostly Cloudy 36 2 9 -12.9 33 33 S 13 20 30.01 1016 10 16 0.00 0.00
11:58 pm 23:58 Partly Cloudy 34 1.3 8 -13.2 33 33 SSE 10 17 30.01 1016 10 16 0.00 0.00

Powered by AerisWeather